When you browse on this site, cookies collect data to enhance your experience and personalize the content and advertising you see.
Visit our Privacy Policy to learn more. By continuing to use the site, you agree to this use of cookies and data.
  • In Hungary
  • List of Countries
  • For 7 days
  • Water Temperature
  • Satellite Maps
  • Weather Map
  • News
  • Weather Widgets
  • user-avatar
    Login

    Hourly Weather Kazancevo

    Today, 19 December, Wednesday

    Time Temperature Precipitation Wind Pressure Humidity
    00:00 -12°C° 0 mm 4 mps 747 mmHg 94%
    01:00 -14°C° 0.1 mm 4 mps 747 mmHg 93%
    02:00 -14°C° 0.1 mm 5 mps 747 mmHg 93%
    03:00 -14°C° 0.1 mm 5 mps 747 mmHg 93%
    04:00 -14°C° 0.1 mm 5 mps 746 mmHg 93%
    05:00 -14°C° 0.1 mm 5 mps 746 mmHg 93%
    06:00 -15°C° 0.1 mm 5 mps 746 mmHg 92%
    07:00 -15°C° 0.1 mm 6 mps 745 mmHg 92%
    08:00 -15°C° 0.1 mm 6 mps 745 mmHg 92%
    09:00 -15°C° 0.1 mm 6 mps 745 mmHg 91%
    10:00 -15°C° 0.2 mm 6 mps 744 mmHg 91%
    11:00 -15°C° 0.2 mm 7 mps 744 mmHg 91%
    12:00 -14°C° 0.2 mm 7 mps 744 mmHg 91%
    13:00 -14°C° 0.2 mm 7 mps 743 mmHg 90%
    14:00 -14°C° 0.2 mm 7 mps 743 mmHg 90%
    15:00 -14°C° 0.2 mm 7 mps 743 mmHg 90%
    16:00 -14°C° 0.4 mm 7 mps 742 mmHg 90%
    17:00 -14°C° 0.4 mm 7 mps 742 mmHg 90%
    18:00 -13°C° 0.4 mm 7 mps 742 mmHg 90%
    19:00 -14°C° 0.4 mm 7 mps 742 mmHg 91%
    20:00 -14°C° 0.4 mm 7 mps 742 mmHg 91%
    21:00 -14°C° 0.4 mm 7 mps 742 mmHg 91%
    22:00 -14°C° 0.3 mm 6 mps 742 mmHg 91%
    23:00 -14°C° 0.3 mm 6 mps 742 mmHg 91%

    Tomorrow, 20 December, Thursday

    Time Temperature Precipitation Wind Pressure Humidity
    00:00 -14°C° 0.3 mm 6 mps 742 mmHg 91%
    01:00 -14°C° 0.2 mm 6 mps 742 mmHg 91%
    02:00 -13°C° 0.2 mm 5 mps 743 mmHg 91%
    03:00 -14°C° 0.2 mm 5 mps 743 mmHg 92%
    04:00 -14°C° 0.1 mm 5 mps 744 mmHg 91%
    05:00 -15°C° 0.1 mm 5 mps 744 mmHg 91%
    06:00 -15°C° 0.1 mm 5 mps 745 mmHg 90%
    07:00 -17°C° 0 mm 4 mps 746 mmHg 91%
    08:00 -19°C° 0 mm 4 mps 748 mmHg 93%
    09:00 -22°C° 0 mm 4 mps 749 mmHg 94%
    10:00 -23°C° 0 mm 4 mps 750 mmHg 93%
    11:00 -24°C° 0 mm 4 mps 751 mmHg 93%
    12:00 -25°C° 0 mm 4 mps 752 mmHg 92%
    13:00 -26°C° 0 mm 4 mps 753 mmHg 92%
    14:00 -26°C° 0 mm 3 mps 754 mmHg 93%
    15:00 -27°C° 0 mm 3 mps 755 mmHg 93%
    16:00 -30°C° 0 mm 3 mps 755 mmHg 94%
    17:00 -32°C° 0 mm 3 mps 756 mmHg 96%
    18:00 -33°C° 0 mm 3 mps 757 mmHg 97%
    19:00 -34°C° 0 mm 3 mps 758 mmHg 97%
    20:00 -34°C° 0 mm 3 mps 759 mmHg 97%
    21:00 -35°C° 0 mm 3 mps 760 mmHg 98%
    22:00 -35°C° 0 mm 3 mps 760 mmHg 98%
    23:00 -35°C° 0 mm 3 mps 761 mmHg 98%

    Day after tomorrow, 21 December, Friday

    Time Temperature Precipitation Wind Pressure Humidity
    00:00 -35°C° 0 mm 3 mps 761 mmHg 98%
    01:00 -35°C° 0 mm 3 mps 762 mmHg 98%
    02:00 -35°C° 0 mm 3 mps 762 mmHg 97%
    03:00 -35°C° 0 mm 4 mps 762 mmHg 97%
    04:00 -35°C° 0 mm 4 mps 762 mmHg 97%
    05:00 -34°C° 0 mm 4 mps 763 mmHg 96%
    06:00 -34°C° 0 mm 5 mps 763 mmHg 95%
    07:00 -33°C° 0 mm 5 mps 763 mmHg 95%
    08:00 -33°C° 0 mm 5 mps 763 mmHg 94%
    09:00 -33°C° 0 mm 6 mps 763 mmHg 94%
    10:00 -31°C° 0 mm 6 mps 762 mmHg 94%
    11:00 -30°C° 0 mm 6 mps 762 mmHg 94%
    12:00 -29°C° 0 mm 6 mps 762 mmHg 93%
    13:00 -29°C° 0 mm 6 mps 761 mmHg 93%
    14:00 -28°C° 0 mm 6 mps 761 mmHg 93%
    15:00 -27°C° 0 mm 6 mps 760 mmHg 92%
    16:00 -28°C° 0 mm 6 mps 760 mmHg 92%
    17:00 -28°C° 0 mm 6 mps 759 mmHg 93%
    18:00 -28°C° 0 mm 6 mps 759 mmHg 93%
    19:00 -28°C° 0 mm 6 mps 758 mmHg 92%
    20:00 -28°C° 0 mm 6 mps 758 mmHg 92%
    21:00 -28°C° 0 mm 6 mps 757 mmHg 91%
    22:00 -27°C° 0 mm 6 mps 756 mmHg 89%
    23:00 -27°C° 0 mm 6 mps 756 mmHg 88%

    22 December, Saturday

    Time Temperature Precipitation Wind Pressure Humidity
    00:00 -27°C° 0 mm 6 mps 755 mmHg 86%
    01:00 -26°C° 0.1 mm 6 mps 754 mmHg 85%
    02:00 -26°C° 0.1 mm 6 mps 754 mmHg 84%
    03:00 -26°C° 0.1 mm 6 mps 753 mmHg 82%
    04:00 -26°C° 0.1 mm 6 mps 753 mmHg 81%
    05:00 -26°C° 0.1 mm 6 mps 752 mmHg 80%
    06:00 -24°C° 0.1 mm 6 mps 752 mmHg 79%
    07:00 -24°C° 0 mm 6 mps 752 mmHg 78%
    08:00 -24°C° 0 mm 6 mps 752 mmHg 77%
    09:00 -24°C° 0 mm 6 mps 751 mmHg 77%
    10:00 -24°C° 0 mm 6 mps 751 mmHg 76%
    11:00 -23°C° 0 mm 6 mps 751 mmHg 76%
    12:00 -23°C° 0 mm 6 mps 751 mmHg 76%
    13:00 -23°C° 0 mm 6 mps 751 mmHg 77%
    14:00 -22°C° 0 mm 5 mps 751 mmHg 78%
    15:00 -22°C° 0 mm 5 mps 751 mmHg 79%
    16:00 -23°C° 0 mm 4 mps 750 mmHg 81%
    17:00 -24°C° 0 mm 4 mps 750 mmHg 83%
    18:00 -25°C° 0 mm 4 mps 750 mmHg 85%
    19:00 -24°C° 0 mm 3 mps 750 mmHg 87%
    20:00 -24°C° 0 mm 3 mps 750 mmHg 88%
    21:00 -24°C° 0 mm 3 mps 750 mmHg 90%
    22:00 -24°C° 0.1 mm 2 mps 750 mmHg 91%
    23:00 -24°C° 0.1 mm 2 mps 750 mmHg 92%

    23 December, Sunday

    Time Temperature Precipitation Wind Pressure Humidity
    00:00 -24°C° 0.1 mm 2 mps 750 mmHg 93%
    01:00 -24°C° 0.1 mm 2 mps 750 mmHg 93%
    02:00 -21°C° 0.1 mm 1 mps 750 mmHg 94%
    03:00 -21°C° 0.1 mm 1 mps 750 mmHg 94%
    04:00 -21°C° 0.1 mm 1 mps 749 mmHg 94%
    05:00 -21°C° 0.1 mm 1 mps 749 mmHg 94%
    06:00 -21°C° 0.1 mm 0 mps 749 mmHg 93%
    07:00 -21°C° 0.1 mm 1 mps 750 mmHg 93%
    08:00 -21°C° 0.1 mm 1 mps 750 mmHg 93%
    09:00 -21°C° 0.1 mm 1 mps 750 mmHg 93%
    10:00 -20°C° 0.1 mm 1 mps 750 mmHg 93%
    11:00 -21°C° 0.1 mm 2 mps 750 mmHg 92%
    12:00 -21°C° 0.1 mm 2 mps 750 mmHg 92%
    13:00 -21°C° 0.1 mm 2 mps 750 mmHg 92%
    14:00 -21°C° 0.1 mm 2 mps 750 mmHg 92%
    15:00 -23°C° 0.1 mm 3 mps 750 mmHg 93%
    16:00 -24°C° 0.1 mm 3 mps 751 mmHg 93%
    17:00 -25°C° 0.1 mm 3 mps 751 mmHg 94%
    18:00 -25°C° 0.1 mm 3 mps 752 mmHg 94%
    19:00 -27°C° 0.1 mm 3 mps 752 mmHg 93%
    20:00 -29°C° 0.1 mm 3 mps 753 mmHg 93%
    21:00 -30°C° 0.1 mm 3 mps 753 mmHg 92%
    22:00 -31°C° 0 mm 3 mps 754 mmHg 91%
    23:00 -30°C° 0 mm 2 mps 754 mmHg 90%

    24 December, Monday

    Time Temperature Precipitation Wind Pressure Humidity
    00:00 -31°C° 0 mm 2 mps 755 mmHg 90%
    01:00 -32°C° 0 mm 2 mps 755 mmHg 90%
    02:00 -32°C° 0 mm 2 mps 756 mmHg 90%
    03:00 -34°C° 0 mm 2 mps 756 mmHg 90%
    04:00 -34°C° 0 mm 2 mps 757 mmHg 90%
    05:00 -34°C° 0 mm 2 mps 757 mmHg 91%
    06:00 -34°C° 0 mm 2 mps 758 mmHg 92%
    07:00 -30°C° 0 mm 1 mps 758 mmHg 93%
    08:00 -30°C° 0 mm 1 mps 759 mmHg 94%
    09:00 -30°C° 0 mm 1 mps 759 mmHg 95%
    10:00 -28°C° 0 mm 1 mps 759 mmHg 94%
    11:00 -25°C° 0 mm 1 mps 760 mmHg 94%
    12:00 -24°C° 0 mm 1 mps 760 mmHg 94%
    13:00 -23°C° 0 mm 1 mps 760 mmHg 94%
    14:00 -23°C° 0 mm 1 mps 760 mmHg 94%
    15:00 -23°C° 0 mm 1 mps 761 mmHg 93%
    16:00 -24°C° 0 mm 1 mps 761 mmHg 93%
    17:00 -25°C° 0 mm 1 mps 761 mmHg 92%
    18:00 -29°C° 0 mm 2 mps 761 mmHg 92%
    19:00 -29°C° 0 mm 2 mps 761 mmHg 90%
    20:00 -29°C° 0 mm 2 mps 761 mmHg 88%
    21:00 -27°C° 0 mm 1 mps 761 mmHg 86%
    22:00 -27°C° 0 mm 1 mps 761 mmHg 84%
    23:00 -27°C° 0 mm 1 mps 761 mmHg 82%
    Show more